Regional Weather Roundup
Issued by NWS State College, PA

Home | Current Version | Previous Version | Text Only | Print | Product List | Glossary On
Versions: 1 2 3 4 5 6 7 8 9 10 11 12 13 14 15 16 17 18 19 20 21 22 23 24 25 26 27 28 29 30 31 32 33 34 35 36 37 38 39 40 41 42 43 44 45 46 47 48 49 50
000
ASUS41 KCTP 230603
RWRCTP

REGIONAL WEATHER ROUNDUP
NATIONAL WEATHER SERVICE STATE COLLEGE PA
200 AM EDT TUE MAY 23 2017

Note: "fair" indicates few or no clouds below 12,000 feet with no
significant weather and/or obstructions to visibility.

* = STATION THAT DOES NOT REPORT PRECIPITATION /E.G. RAIN...SNOW...ETC/
    THUNDER OR FOG.

PAZ002>004-007>009-013>016-020>023-029>032-230700-
WESTERN PENNSYLVANIA

CITY           SKY/WX    TMP DP  RH WIND       PRES   REMARKS
ERIE           CLOUDY    54  45  71 S6        29.98F
MEADVILLE      CLOUDY    52  46  80 S6        30.00F
FRANKLIN*      CLOUDY    46  41  81 SW6       30.02F
NEW CASTLE     FAIR      48  47  96 CALM      30.02F
BEAVER COUNTY  NOT AVBL
BUTLER*        CLOUDY    48  45  87 CALM      30.01F
PITTSBURGH INT CLOUDY    51  48  89 CALM      30.00F
PITTSBURGH     CLOUDY    57  43  59 CALM      30.00F
INDIANA*       NOT AVBL
LATROBE        CLOUDY    48  48 100 MISG      30.02F
WASHINGTON CO* CLOUDY    46  45  93 CALM      30.03F
$$

PAZ004>006-010>012-017>019-024>028-033>037-041-042-045-046-049>053-230700-
CENTRAL PENNSYLVANIA

CITY           SKY/WX    TMP DP  RH WIND       PRES   REMARKS
BRADFORD       CLOUDY    40  40 100 CALM      30.01S
DUBOIS         CLOUDY    47  42  83 SW3       30.01F
CLEARFIELD     CLOUDY    47  45  93 CALM      30.03S
JOHNSTOWN      CLOUDY    51  46  83 W3        30.02F
ALTOONA        CLOUDY    51  47  86 CALM      30.01F
STATE COLLEGE  CLOUDY    54  44  69 CALM      30.01F
WILLIAMSPORT   CLOUDY    57  57 100 CALM      29.98F FOG
SELINSGROVE    CLOUDY    50  50 100 NW3       29.98F FOG
FT INDIANTOWN  FOG       54  54 100 CALM      29.96S VSB 1/4
CAPITAL CITY   CLOUDY    54  51  90 SW5       29.97S FOG
HARRISBURG     CLOUDY    57  56  96 CALM      29.96S FOG
YORK           FOG       54  54 100 CALM      29.97F VSB 1/4
$$

PAZ038>040-043-044-047-048-054-055-060>062-067>071-230700-
EASTERN PENNSYLVANIA

CITY           SKY/WX    TMP DP  RH WIND       PRES   REMARKS
SCRANTON       CLOUDY    60  49  66 N7        30.00R
MOUNT POCONO   CLOUDY    54  54 100 NW9       29.97F
ALLENTOWN      CLOUDY    57  54  89 CALM      29.95F
QUAKERTOWN*    CLOUDY    57  57 100 CALM      29.96F
READING        FOG       56  56 100 CALM      29.95F VSB 1/2
LANCASTER      FOG       56  56 100 SW3       29.96F VSB<1/4
COATESVILLE    CLOUDY    59  59 100 NW8       29.96F FOG
POTTSTOWN      CLOUDY    57  56  96 N5        29.97F FOG
BLUE BELL      CLOUDY    59  59 100 CALM      29.96F
DOYLESTOWN     CLOUDY    59  59 100 CALM      29.94F
WILLOW GROVE   NOT AVBL
NORTH PHILA    CLOUDY    63  59  87 NW7       29.96F
PHILADELPHIA   PTCLDY    63  58  83 CALM      29.94F
$$




USA.gov is the U.S. government's official web portal to all federal, state and local government web resources and services.